This is the latest recevied weather packets stored in our database for station/object KI5MKI. If no packets are shown the sender has not sent any weather packets the latest 10 day(s).
| Time | Temp. | Humidity | Pressure | Rain* | Wind** | Luminosity | Snow |
|---|---|---|---|---|---|---|---|
| 1777126393 | 19.44° C | 96% | 1009.2 hPa | 0 mm | - | 148 W/m² | - |
| 1777126089 | 19.44° C | 96% | 1009.2 hPa | 0 mm | - | 209 W/m² | - |
| 1777125786 | 19.44° C | 96% | 1009.2 hPa | 0 mm | - | 207 W/m² | - |
| 1777125482 | 18.89° C | 96% | 1009.1 hPa | 0 mm | - | 180 W/m² | - |
| 1777125177 | 18.89° C | 96% | 1009.2 hPa | 0 mm | - | 181 W/m² | - |
| 1777124873 | 18.89° C | 96% | 1009.1 hPa | 0 mm | - | 171 W/m² | - |
| 1777124569 | 18.33° C | 96% | 1009.1 hPa | 0 mm | - | 173 W/m² | - |
| 1777124265 | 18.33° C | 96% | 1009 hPa | 0 mm | - | 146 W/m² | - |
| 1777123962 | 18.33° C | 96% | 1008.9 hPa | 0 mm | - | 130 W/m² | - |
| 1777123658 | 18.33° C | 96% | 1009 hPa | 0 mm | - | 111 W/m² | - |
| 1777123355 | 17.78° C | 96% | 1009 hPa | 0 mm | - | 107 W/m² | - |
| 1777123051 | 17.78° C | 96% | 1009 hPa | 0 mm | - | 100 W/m² | - |
| 1777122747 | 17.78° C | 96% | 1009 hPa | 0 mm | - | 99 W/m² | - |
| 1777122443 | 17.78° C | 96% | 1009.1 hPa | 0 mm | - | 92 W/m² | - |
| 1777122140 | 17.78° C | 96% | 1009 hPa | 0 mm | - | 86 W/m² | - |
| 1777121835 | 17.78° C | 96% | 1008.7 hPa | 0 mm | - | 73 W/m² | - |
| 1777121533 | 17.22° C | 96% | 1008.8 hPa | 0 mm | - | 70 W/m² | - |
| 1777121229 | 17.22° C | 96% | 1008.9 hPa | 0 mm | - | 39 W/m² | - |
| 1777120926 | 17.22° C | 96% | 1008.8 hPa | 0 mm | - | 36 W/m² | - |
| 1777120621 | 17.22° C | 96% | 1008.8 hPa | 0 mm | - | 40 W/m² | - |
| 1777120318 | 17.22° C | 96% | 1008.5 hPa | 0 mm | - | 25 W/m² | - |
| 1777120018 | 17.22° C | 96% | 1008.7 hPa | 0 mm | - | 21 W/m² | - |
| 1777119715 | 17.22° C | 96% | 1008.9 hPa | 0 mm | - | 16 W/m² | - |
| 1777119410 | 16.67° C | 96% | 1008.6 hPa | 0 mm | - | 15 W/m² | - |
| 1777119105 | 16.67° C | 96% | 1008.7 hPa | 0 mm | - | 17 W/m² | - |
* Rain latest hour (hover to see other rain measurements)
** Current wind speed in m/s (hover to see current wind gust speed)